Reflectivity
-20 -20 -20 -20 -20 -20 1 -2 -20 -20 -20 -20 -20 -20 -20 -20 -20 -20 -20 -20 -20 -20 -20 -18 13 19 9 12 6 3 -20 -20 -20
-3 3 -3 -20 13 -15 -3 -20 -20 -20 -20 -20 -20 -20 -20 -20 -20 -20 -20 -20 -20 -20 -20 -20 -20 -20 -20 -11 -20 -20 -20 -20 -20
-20 -20 -17 -20 -11 -6 -20 -20 -20 -20 -20 -20 -20 -20 -20 -20 -20 -20 -20 -20 -20 -20 -20 -20 -20 -20 -20 -20 -20 -20 -20 -20 -20
-20 -20 -20 -20 -20 -16 -17 -20 -20 -20 -20 -20 -20 -20 -20 -20 -20 -20 -20 -20 -20 -20 -20 -20 -20 -20 -20 -20 -20 -20 -20 -20 -20
-20 -20 -20 -20 -20 -20 -20 -20 -20 -20 -20 -20 -20 -20 -20 -20 -20 -20 -20 -20 -20 -20 -20 -20 -20 -20 -20 -20 -20 -20 -20 -20 -20
-20 -20 -20 -20 -20 -20 -20 -20 -20 -20 -20 -20 -20 -20 -20 -20 -20 -20 -20 -20 -20 -20 -20 -20 -20 -20 -20 -20 -20 -20 -20 -20 -20
-20 -20 -20 -20 -20 -20 -20 -20 -20 -20 -20 -20 -20 -20 -20 -20 -20 -20 -20 -20 -20 -20 -20 -20 -20 -20 -20 -20 -20 -20 -20 -20 -20
-20 -20 -20 -20 -20 -20 -20 -20 -20 -20 -20 -20 -20 -20 -20 -20 -20 -20 -20 -20 -20 -20 -20 -20 -20 -20 -20 -20 -20 -20 -20 -20 -20
-20 -20 -20 -20 -20 -20 -20 -20 -20 -20 -20 -20 -20 -20 -20 -20 -20 -20 -20 -20 -20 -20 -20 -20 -20 -20 -20 -20 -20 -20 -20 -20 -20
-20 -20 -20 -20 -20 -20 -20 -20 -20 -20 -20 -20 -20 -20 -20 -20 -20 -20 -20 -20 -20 -20 -20 -20 -20 -20 -20 -20 -20 -20 -20 -20 -20
-20 -20 -20 -20 -20 -20 -20 -20 -20 -20 -20 -20 -20 -20 -20 -20 -20 -20 -20 -20 -20 -20 -20 -20 -20 -20 -20 -20 -20 -20 -20 -20 -20
-20 -20 -20 -20 -20 -20 -20 -20 -20 -20 -20 -20 -20 -20 -20 -20 -20 -20 -20 -20 -20 -20 -20 -20 -11 -13 -20 -2 -20 -20 -20 -20 -20
-20 -20 -20 -20 -20 -20 -20 -20 -20 -20 -20 -20 -20 -20 -20 -20 -20 -20 -20 -20 -20 -20 -20 -20 -20 -20 -20 5 14 9 -19 -20 -19
-20 -20 -20 -20 -20 -20 -20 -20 -20 -20 -20 -20 -20 -20 -20 -20 -20 -20 -20 -20 -20 -20 -20 -20 -20 -20 -20 -20 -11 16 3 9 3
-20 -20 -20 -20 -20 -20 -20 -20 -20 -20 -20 -20 -20 -20 -20 -20 -20 -20 -20 -20 -20 -20 -20 -20 -20 -20 -20 21 -20 5 28 18 5
-20 -20 -20 -20 -20 -20 -20 -20 -20 -20 -20 -20 -10 -17 -20 -20 -20 -20 -20 -20 -20 -20 -20 -20 -20 -20 -20 -20 -20 10 -20 8 -0
-20 -20 -20 -20 -20 -20 -20 -19 -17 -20 -20 -20 -20 -20 -20 -20 -20 -20 -20 -20 -19 -19 -20 -20 -20 -20 -20 -20 -20 -13 0 -9 -16
27 30 25 -10 -12 -20 -13 4 -10 -17 -20 -20 -20 -20 -20 -20 -20 -20 -20 -20 -15 -20 -20 -20 -20 -20 -20 -20 -20 -20 -16 -20 -20
30 33 31 32 33 30 30 25 20 19 19 29 20 20 16 16 -17 -20 -20 2 -20 -20 -20 -20 -20 -20 -20 -20 -20 -20 -20 -20 -20
19 -2 29 7 28 21 -6 29 28 30 19 19 27 32 26 -19 -9 -17 -20 -20 -20 -20 -20 -20 -20 -20 -20 -20 -20 -20 -20 -20 -20
Wind_Speed
19 19 16 15 15 15 16 15 15 13 12 12 15 15 15 13 8 7 8 6 15 15 14 14 13 13 14 15 15 16 16 15 16
18 17 15 15 16 17 16 15 13 11 10 11 12 12 14 9 7 6 6 7 15 15 15 14 14 14 14 14 14 15 15 15 15
17 17 14 15 15 15 14 14 12 10 9 9 10 11 11 9 7 6 5 11 14 15 14 14 14 14 15 14 14 14 14 15 15
16 14 14 16 14 13 13 13 11 9 7 6 7 9 9 7 5 6 4 10 13 14 14 14 14 14 14 14 14 14 13 14 14
14 11 12 13 12 12 11 11 10 8 4 3 5 8 9 5 6 4 4 11 12 12 12 13 13 13 13 12 13 13 12 13 13
9 8 12 11 10 11 11 10 8 6 3 1 2 3 3 4 4 3 8 10 11 11 11 11 11 12 12 11 11 11 11 12 12
7 7 10 10 9 8 8 8 7 5 1 2 3 1 2 3 4 3 9 8 9 9 9 9 10 10 10 10 9 10 10 10 11
5 4 3 4 6 3 4 4 3 4 3 3 3 2 3 3 3 5 9 8 7 7 7 8 8 8 9 9 8 9 9 9 9
7 5 6 5 4 5 4 3 3 5 6 6 4 1 2 3 3 4 9 8 8 7 7 7 7 7 7 7 7 7 7 7 8
6 5 5 5 4 4 4 4 4 5 3 3 3 2 2 4 3 3 7 8 8 8 8 7 7 7 6 6 6 6 6 6 6
5 6 6 5 4 4 4 4 5 4 3 4 4 4 3 3 5 4 4 8 8 9 9 9 8 7 7 6 6 6 5 5 5
7 6 4 4 4 5 3 2 2 2 1 3 4 4 4 4 5 5 4 5 8 9 10 10 10 10 9 8 8 7 6 6 5
5 5 5 5 4 4 3 3 2 1 2 2 3 3 4 5 5 4 4 4 4 7 11 10 10 9 11 11 11 12 11 9 8
5 4 4 4 4 3 3 2 2 2 2 3 3 3 3 4 3 5 5 6 5 4 8 9 8 7 8 10 11 11 13 12 12
6 4 5 5 4 3 2 3 3 3 3 2 3 3 4 4 4 5 4 4 5 5 4 4 4 6 8 10 11 10 7 13 14
7 4 5 5 5 6 5 3 4 3 2 2 2 3 5 5 5 4 4 2 3 5 3 3 1 2 3 3 5 6 7 5 11
7 6 5 5 4 6 6 5 3 3 4 3 1 2 4 2 4 2 1 4 4 5 5 6 5 5 4 8 11 9 6 5 5
1 4 4 3 2 4 4 5 6 4 3 5 4 0 4 1 3 4 3 5 4 4 5 6 6 6 5 6 6 10 9 7 5
4 5 5 5 4 6 4 3 3 3 3 1 3 3 2 2 0 2 3 3 5 5 4 5 6 6 4 7 10 9 7 6 6
4 5 6 6 4 4 6 5 4 4 3 4 2 4 2 1 2 3 2 3 3 4 4 4 4 5 4 3 5 7 6 5 5
Wind_Direction
109 109 107 108 110 112 107 106 103 96 83 68 51 84 93 83 73 60 62 64 75 73 74 75 71 66 64 63 62 63 63 65 66
115 112 107 102 104 104 106 105 104 96 80 65 58 70 100 91 79 66 58 69 76 75 74 73 73 71 71 70 68 70 72 71 71
118 115 111 106 104 109 108 107 102 91 74 61 50 54 103 96 92 79 67 76 77 75 75 74 73 73 74 73 73 73 75 75 74
123 119 117 112 110 109 110 108 103 94 78 63 48 52 64 112 114 93 76 80 78 77 76 75 75 74 76 75 76 74 74 74 74
127 127 120 118 118 114 114 115 111 104 88 34 38 27 76 107 107 101 94 88 83 80 78 78 78 77 77 78 78 75 74 72 72
132 138 129 128 127 126 125 127 129 136 151 252 315 18 67 133 111 116 113 98 90 87 85 83 82 83 82 80 78 79 77 75 73
136 136 135 134 135 138 144 148 156 147 202 292 298 22 77 157 136 144 132 116 106 101 98 94 92 89 87 85 82 81 79 79 78
142 137 137 139 145 164 164 175 179 189 214 256 262 264 117 146 155 158 150 142 131 125 120 113 107 105 100 95 92 89 86 84 85
153 162 160 168 175 184 191 192 211 216 204 205 237 218 112 129 151 177 165 167 166 158 151 141 131 123 116 111 110 104 101 98 94
158 170 173 183 181 190 195 197 216 232 200 196 166 144 137 128 166 186 183 187 185 189 182 175 163 148 142 136 135 127 121 112 103
170 177 188 189 188 200 194 193 188 207 177 210 212 193 190 178 160 186 201 201 202 203 208 199 191 183 176 169 165 151 141 134 125
166 183 183 189 201 203 209 211 113 135 169 190 192 209 212 217 196 181 196 202 213 214 218 221 216 203 203 200 194 180 172 166 160
155 144 174 173 165 163 158 143 181 214 217 247 250 212 191 193 216 228 198 193 196 213 220 225 230 225 229 230 215 195 190 187 190
155 152 172 166 153 155 160 185 153 191 227 228 227 217 230 235 233 225 214 202 193 192 214 214 232 253 243 246 246 234 205 202 199
163 177 185 167 150 165 156 177 211 180 198 241 265 253 234 235 231 237 234 227 193 177 174 177 220 241 245 251 260 273 252 213 214
167 177 191 174 170 181 184 176 199 242 162 94 316 277 247 243 233 225 224 246 152 124 118 115 91 309 258 336 321 333 317 275 220
172 182 185 188 177 186 187 175 187 211 193 161 123 296 322 294 248 226 169 117 104 89 80 81 65 55 66 64 42 33 9 349 306
254 219 174 181 203 198 192 177 178 200 222 209 155 162 237 316 7 47 73 88 80 81 84 75 71 60 58 50 35 24 9 346 331
225 206 204 206 208 187 231 210 176 154 218 327 250 267 184 178 295 49 57 79 78 79 65 71 63 61 47 40 25 16 7 2 349
214 222 202 208 221 199 193 210 224 226 193 186 173 229 256 125 148 213 144 61 46 66 77 82 70 59 58 41 15 5 3 351 339